GFSNW_prec_radar_276.txt.gz
Reflectivity
13 16 26 27 17 31 30 41 36 29 11 36 40 26 -20 -20 -20 -20 -20 -20 -12 -13 15 16 -20 -20 -16 -0 -20 -20 -20 12 -20 -7 -20 -20 -20 -20 -20 -19 -20 -7 -16 -13
5 30 33 35 27 36 34 44 37 37 17 39 33 9 -15 1 -12 -20 -20 -20 -20 -20 -18 -9 -8 -14 17 -20 -20 -20 -19 -7 24 3 -3 -20 -20 -16 -10 -18 -20 -18 13 -12
27 21 27 38 22 30 35 42 41 39 37 37 0 3 -20 -1 2 -16 -20 -20 -20 -20 25 26 14 1 -20 -20 -20 -20 -20 -7 -4 31 10 -8 -4 -19 -0 -20 -11 -20 -20 -20
21 -5 19 29 28 34 39 38 39 42 37 40 15 11 -20 0 -1 -20 -20 -20 -20 -19 25 20 -19 -20 17 -18 -20 -20 -20 -20 -20 5 10 19 -12 -5 -20 -18 5 -18 -20 -20
13 5 32 20 32 41 42 38 42 36 2 20 22 13 -0 -15 -11 -20 -12 -3 -20 -2 -19 -20 -20 -20 11 -13 -20 -20 -20 -0 -20 18 -17 -19 -11 -3 23 -20 -20 -20 -20 -20
-2 17 28 35 33 36 34 41 38 28 24 15 20 -1 -19 0 -4 -19 -20 -9 -8 8 -3 12 6 6 22 12 -20 -20 -20 -20 -10 26 -19 -20 -19 -12 -20 -20 -20 -20 -20 -20
-14 25 36 28 24 35 37 41 40 35 32 29 -15 -14 -4 7 -16 -20 -15 3 -0 20 -20 -20 2 -20 -20 -20 -19 -20 -20 -20 -20 -2 5 5 -20 -20 -20 -20 -20 -20 -20 -20
-16 16 24 31 35 29 31 37 22 29 19 27 9 -10 -12 6 1 -11 21 -4 -11 10 -20 -20 -18 -20 -20 -20 -20 -20 -20 -20 11 15 12 -20 -20 -20 -20 -20 -20 -20 -20 -20
-12 18 27 30 40 34 36 31 36 37 18 32 19 1 -2 14 0 25 31 29 16 -1 -16 -20 -19 -18 -20 -20 -20 -20 -20 -20 6 -1 -20 -20 -20 -20 -20 -20 -20 -20 -20 -20
-19 10 18 18 31 37 33 31 32 21 12 15 22 13 -8 12 21 31 29 27 24 26 -4 -20 -19 14 3 -0 -20 -20 -1 -12 2 -20 -20 -20 -20 -4 -1 -20 -20 -20 -20 -20
-20 6 12 -5 27 25 19 29 45 4 7 15 17 12 23 3 29 30 29 23 20 28 10 7 -2 -20 -20 -16 -20 -20 -15 -20 0 3 -7 -20 -20 -20 -20 -20 -20 -20 -20 -20
-14 27 25 12 18 25 34 31 20 -6 -8 -8 -17 8 27 26 17 33 33 24 7 31 7 -14 -20 -20 -20 -20 -20 -4 -15 -20 -20 -19 -20 -20 -20 -20 -20 -20 -20 -20 -20 -20
5 23 25 29 30 40 40 28 35 34 -4 14 -1 -20 25 25 32 37 28 34 29 22 17 15 -17 -20 -20 -20 -20 -19 -20 -20 -20 -20 -20 -20 -20 -20 -20 -20 -20 -20 -20 -20
30 28 17 14 32 38 35 33 13 25 25 14 -18 -20 -6 33 21 39 33 30 37 15 19 30 -11 -8 -20 -20 -20 -20 -20 -20 -20 -20 -20 -20 -20 -20 -20 -20 -20 -20 -20 -20
10 21 16 10 19 36 37 30 32 28 -13 -11 -20 -20 2 6 33 32 36 32 35 30 30 35 26 -14 -20 -20 -20 -20 -20 -20 -20 -20 -20 -20 -20 -20 -20 -20 -20 -20 -20 -20
17 26 17 -2 15 33 37 38 36 29 6 -10 -9 8 11 15 30 33 37 27 35 37 30 21 -8 -20 -20 -20 -20 -20 -20 -20 -20 -20 -20 -20 -20 -20 -20 -20 -20 -20 -20 -20
19 20 11 5 18 24 25 32 31 37 0 -16 29 31 30 23 14 30 32 36 38 18 8 -15 -16 -19 -14 -8 -20 -20 -20 -20 -20 -20 -20 -20 -20 -20 -20 -20 -20 -20 -20 -20
8 16 12 7 26 24 13 22 23 29 37 18 12 27 33 31 36 29 31 27 23 29 30 10 -0 0 -10 -6 -20 -20 -20 -20 -20 -20 -20 -20 -20 -20 -20 -20 -20 -20 -20 -20
-20 -7 -7 -3 22 22 20 37 35 32 33 13 13 2 19 27 37 33 23 25 31 23 27 20 8 -18 -20 -20 -20 -20 -20 -20 -20 -20 -20 -20 -20 -20 -20 -20 -20 -20 -20 -20
15 19 11 14 8 3 28 40 39 30 33 33 0 -20 17 22 17 19 28 27 10 1 0 -9 0 -14 4 -15 -20 -20 -20 -20 -20 -20 -20 -20 -20 -20 -20 -20 -20 -20 -20 -20
-7 20 10 14 26 28 33 29 29 30 32 21 20 -14 -20 -20 -20 -2 -2 5 -4 -12 -3 -20 -20 -20 -20 -20 -20 -20 -20 -20 -20 -20 -20 -20 -20 -20 -20 -20 -20 -20 -20 -20
6 -6 8 26 31 31 29 31 31 34 30 26 8 -13 -20 -20 -19 -1 -3 -3 -10 -20 -20 -11 -20 -20 -20 -20 -20 -20 -20 -20 -20 -20 -20 -20 -20 -20 -20 -20 -20 -20 -20 -20
19 22 26 26 31 24 16 23 23 23 7 -19 -8 -16 -20 -20 -20 -20 -20 -1 -1 -20 -15 -18 -20 -20 -20 -20 -20 -20 -20 -20 -20 -20 -20 -20 -20 -20 -20 -20 -20 -20 -20 -20
23 19 22 19 23 22 18 2 -12 -11 -19 -20 -20 -20 -20 -16 -16 -20 -20 -20 -12 -4 -20 -20 -20 -20 -20 -20 -20 -20 -20 -20 -20 -20 -20 -20 -20 -20 -20 -20 -19 -4 -20 -20
32 13 17 7 24 2 -20 -8 -20 -6 -10 -20 -20 -20 -20 -20 -2 -20 -20 -20 -20 -20 -20 -20 -20 -20 -20 -20 -20 -20 -20 -20 -20 -20 -20 -20 -20 -20 -20 -20 -20 -20 -20 -20
25 9 10 5 10 -10 -19 12 13 3 -20 -20 -19 -20 -19 -20 -20 -20 -20 -20 -20 -20 -20 -20 -20 -20 -20 -20 -20 -20 -20 -20 -20 -20 -20 -20 -20 -20 -20 -20 -20 2 -20 -20
-7 6 8 2 12 -2 18 23 -20 -20 -20 -20 -20 -15 -20 -20 -20 -20 -20 -20 -20 -20 -20 -20 -20 -20 -20 -20 -20 -20 -20 -20 -20 -20 -20 -20 -20 -20 -20 -20 -20 -20 -20 -20

GFSNW_prec_radar_279.txt.gz
Reflectivity
-20 -20 3 -20 -20 -20 9 14 25 21 26 37 44 35 3 -20 -20 -20 -20 -20 -20 -20 -20 -20 -20 -20 -20 -20 -20 -20 -20 -20 -20 -20 -20 -20 -20 -20 -20 -20 -20 -20 -20 -11
-20 -20 -20 -16 -20 -17 16 40 19 31 28 24 42 28 -11 -20 -20 -20 -20 -20 -20 -20 -20 -20 -20 -20 -20 -20 -20 -20 -20 -20 -20 -20 -19 -20 -20 -20 -20 -20 19 22 -3 -13
-20 -20 -20 -6 -9 1 37 37 29 26 34 29 38 25 1 -8 -20 -20 -20 -20 -20 -20 -20 -20 -20 -20 -20 -20 -17 -20 -20 -20 -20 -20 -1 -20 -20 -19 -20 -20 -6 -0 -17 5
-20 -6 -20 -20 -9 19 37 39 27 32 39 39 46 18 -4 1 -19 -3 -20 -20 -20 -20 -20 -20 -20 -20 -20 -20 -20 -20 -20 -20 -20 -20 -20 -19 -20 -6 29 -6 -20 17 6 21
-20 -2 17 -20 6 7 38 41 36 39 25 41 6 29 29 33 -11 -16 -20 -20 -20 -20 -20 -20 -20 30 -18 2 -20 -20 -20 -20 -20 -20 -20 4 3 5 -20 -20 5 -3 7 16
-15 -20 11 5 13 33 36 38 31 24 32 34 24 15 30 22 -17 2 -20 -20 -20 -20 -20 -19 -7 -3 -15 -20 -13 7 -20 -20 -20 -20 -20 -7 16 -15 -3 -20 -18 -16 20 -20
-7 -20 19 14 19 31 39 30 41 33 38 31 32 18 5 6 6 -16 -20 -15 11 -20 14 11 -11 -11 -3 -20 -15 -20 -20 -20 -20 -20 -17 28 -19 -20 -14 -19 6 -2 -20 -20
12 14 14 -16 14 34 35 30 28 40 27 30 32 30 25 32 25 13 14 -20 -6 4 5 17 6 -0 -20 -7 7 -20 17 -20 -20 -20 -3 -18 -20 -20 -20 -20 -20 -20 -20 -20
-20 10 -20 3 15 33 27 25 35 35 34 26 24 33 37 40 33 20 -7 -20 18 27 31 -19 8 -0 -20 8 18 23 -20 -20 -20 -20 -20 -20 -17 -18 -20 -20 -20 -20 -20 -20
-20 -20 -20 -17 22 29 31 31 36 34 41 27 22 31 38 39 28 -4 -3 21 21 18 17 16 8 -13 -20 -20 -20 -20 -20 -20 -20 -20 -20 -20 -20 -20 -20 -20 -20 -20 -20 -20
-20 -20 -20 -18 22 20 30 17 27 40 42 30 35 34 29 34 28 -2 8 36 29 38 26 -13 -19 -20 -20 -20 -10 -18 -15 -20 -20 -20 -20 -17 -12 -20 -20 -20 -20 -20 -20 -20
-20 -20 -20 3 23 9 25 19 26 32 37 35 37 34 34 25 23 12 18 13 27 26 -12 -8 -20 -15 -20 -20 -4 -20 -19 -20 -20 -20 -17 -16 -18 -20 -20 -20 -20 -20 -20 -20
-20 -18 -16 20 18 12 17 13 33 42 29 33 31 16 29 30 21 -20 -8 5 17 31 0 -13 -19 -19 -20 5 -17 -20 -20 -20 -20 -20 -20 -20 -20 -20 -20 -20 -20 -20 -20 -20
-20 -15 -2 25 20 21 16 28 34 25 25 39 13 11 13 40 33 35 6 8 23 23 24 9 19 10 -13 -20 -15 -6 -20 -20 -20 -20 -20 -20 -20 -20 -20 -20 -20 -20 -20 -20
-20 6 27 24 16 10 19 15 29 13 36 21 2 3 -6 15 16 35 36 23 7 35 37 31 32 28 14 3 -17 -20 -20 -20 -20 -20 1 -20 -20 -20 -20 -20 -20 -20 -20 -20
-20 17 30 27 22 8 17 10 23 26 31 9 10 -20 -14 -3 17 38 33 37 33 34 36 34 30 33 14 -19 -20 -20 -20 -20 -20 -20 -20 -20 -20 -20 -20 -20 -20 -20 -20 -20
-8 18 32 28 13 -6 20 18 37 35 33 28 30 11 -19 -2 17 16 38 36 29 26 33 36 35 27 35 22 -20 -20 8 -9 -20 -20 -20 -17 -20 -20 -20 -20 -20 -20 -20 -20
-20 5 16 14 3 -20 10 16 38 38 31 24 24 21 17 12 10 26 1 22 36 26 26 32 35 30 10 -20 -20 -20 -20 -20 -20 -20 -20 -20 -20 -20 -20 -20 -20 -20 -20 -20
19 -20 -2 -13 -14 -4 0 20 41 39 30 35 34 11 15 17 13 25 21 19 35 32 39 34 13 3 -8 -9 -16 -20 -20 -14 -20 -20 -20 -20 -20 -20 -20 -20 -20 -20 -20 -20
-11 6 6 -20 -20 2 21 31 32 43 41 37 1 -20 6 11 16 24 31 32 26 39 27 7 -8 -9 2 -15 -20 9 11 1 -3 -20 -20 -20 -20 -20 -20 -20 -20 -20 -20 -20
16 12 8 -15 5 19 33 23 26 28 26 26 26 -18 -20 -15 2 19 25 32 32 26 29 0 -20 -20 -20 -20 -20 -20 -20 -5 -18 -20 -20 -20 -20 -20 -20 -20 -20 -20 -20 -20
-20 18 -1 -20 28 24 24 21 17 23 22 24 9 -20 -20 7 15 20 31 33 22 18 9 14 -20 -20 -20 -20 -20 -20 -20 -20 -20 -20 -20 -20 -20 -20 -20 -20 -20 -20 -20 -20
5 17 3 17 22 22 20 18 11 16 11 -7 -19 -17 -20 -20 -6 -4 0 16 13 9 10 -14 -20 -20 -19 -10 -16 -20 -20 -20 -20 -20 -20 -20 -20 -20 -20 -20 -20 -20 -20 -20
4 25 10 10 14 4 -1 -19 -18 -20 -14 -7 -20 -20 -20 -20 -20 -7 -17 -15 -14 -20 -20 -20 -20 -20 -19 -12 -18 -20 -20 -20 -20 -20 -20 -20 -20 -20 -20 -20 -20 -20 -20 -20
-6 22 3 1 -6 -20 -20 -15 -20 -19 -17 -13 -16 -14 -20 -20 -1 -19 -20 -20 -20 -20 -20 -20 -20 -20 -20 -20 -20 -20 -20 -20 -20 -20 -20 -20 -20 -20 -20 -20 -20 -20 -20 -20
0 17 -9 -20 -19 -20 -20 -20 -20 -20 6 22 13 6 15 12 -20 -20 -20 -20 -20 -20 -20 -20 -20 -20 -20 -20 -20 -20 -20 -20 -20 -20 -20 -20 -20 -20 -20 -20 -20 -20 -20 -20
4 3 -20 -20 -20 -20 -18 -15 -5 -20 -19 -10 -13 -4 11 -20 -20 -20 -20 -20 -20 -20 -20 -20 -20 -20 -20 -20 -20 -20 -20 -20 -20 -20 -20 -20 -20 -20 -20 -20 -20 -20 -20 -20

GFSNW_prec_radar_285.txt.gz
Reflectivity
-20 -20 -20 -20 -20 14 -16 -20 -20 -20 -20 -20 -20 -20 -20 -20 -20 -20 -20 -20 -20 -20 -20 -20 -20 -20 -20 -20 -20 -20 -20 -20 -20 -20 -20 -20 -20 -20 -20 -20 -20 -20 -20 -20
-20 -20 -20 -20 -20 -17 -6 -20 -20 -20 -20 -20 -20 -20 -20 -20 -20 -20 7 8 -20 -20 -20 -20 -20 -20 -20 -20 -20 -20 -20 -20 -20 -20 -20 -20 -20 -20 -20 -20 -20 -20 -20 -20
6 -20 -20 -20 -14 13 -20 -8 -15 -20 -5 -8 -20 -20 -20 -20 -20 -20 -16 20 0 -20 -20 -20 -20 -20 -20 -20 -20 -20 -20 -20 -20 -20 -20 -20 -20 -20 -20 -20 -20 -20 -20 -20
-12 -20 -20 -19 -9 1 5 11 -0 -20 -12 -12 -20 -20 -20 -20 -20 -20 -20 0 10 1 -1 -20 -20 -20 -20 -20 -20 -20 -20 -20 -20 -20 -20 -20 -20 -20 -20 -20 -20 -20 -20 -20
-20 -20 -20 15 -20 17 18 13 5 -9 -1 -20 -8 -1 0 -20 -20 -20 -20 23 -15 2 -0 -20 -20 -20 -20 -20 -20 -20 -12 -20 -20 -20 -20 -20 -20 -20 -20 -20 -20 -20 -20 -20
-17 -20 -20 -18 10 19 8 15 -14 -13 -18 4 8 -6 -8 -20 -7 -20 -20 -20 6 9 33 -16 -20 -20 -17 -20 -20 -20 15 21 17 -20 -20 -9 -19 -20 -20 -20 -20 -20 -20 -20
-20 -20 -20 -18 17 4 -5 12 15 21 9 3 -20 -20 -20 -6 -20 4 -20 -20 -20 29 -18 10 6 -19 -20 -20 -20 23 19 -9 19 -2 -0 16 -20 -20 -20 -20 -20 -20 -20 -20
-20 -20 -15 14 16 16 17 23 15 25 12 -15 -16 -10 -15 -20 -20 -17 -20 -20 -19 -19 8 26 15 6 21 11 -20 22 18 25 20 16 9 -12 -20 -20 -5 -20 -20 -20 -20 -20
-20 -20 -20 -20 -17 15 21 -18 11 26 29 -7 -20 -20 -20 -20 -18 -20 -20 -20 -20 16 28 34 41 32 21 26 30 22 21 1 24 20 30 -5 -20 -20 9 10 -20 -20 -20 -19
-20 -20 -20 -20 -20 -20 18 -4 -20 27 24 16 -19 -4 -20 -20 -8 11 34 -7 14 28 43 21 33 33 0 7 -15 5 4 18 22 15 23 -4 -20 2 10 -20 -20 2 -20 -12
-20 -20 -20 -20 -20 -20 -9 -2 -20 15 15 15 -8 -20 -20 -14 7 9 25 24 1 21 39 40 49 21 -15 -3 -16 6 -0 3 -1 28 44 -3 -19 8 -19 -19 -6 20 -20 -20
-20 -20 -20 -20 -20 -2 12 7 -20 18 13 21 11 -20 -20 -20 -0 14 21 30 28 4 34 35 43 20 -6 21 14 -20 3 -20 -20 13 23 1 11 22 0 -20 -20 -20 -20 -20
-20 -20 -20 -20 -20 -20 -16 -18 -17 26 36 35 21 8 -20 -19 17 3 27 16 7 28 25 6 25 32 -16 23 19 -1 35 -14 0 2 -16 5 -4 -9 -20 -20 -20 -20 -20 -20
-20 -20 -20 -20 -20 -20 -3 5 -1 28 28 23 11 -20 -18 5 27 34 35 35 31 9 30 30 21 25 -13 -3 12 13 33 5 -20 -20 -20 -10 -2 13 -20 -20 -20 -20 -20 -20
-20 -20 -20 -20 -20 -20 13 10 13 17 27 26 6 -19 -7 15 17 34 16 34 37 41 22 29 10 29 20 4 26 -4 -4 21 -12 -20 -20 3 18 4 -20 -20 -20 -20 -20 -20
-20 -20 -20 -20 -20 -20 -20 16 -20 -20 21 38 11 -17 14 17 22 36 39 23 33 42 45 25 18 34 31 30 25 2 -9 -20 -20 -20 2 21 -2 -20 -20 -20 -20 -20 4 -7
-20 -20 -20 -20 -20 16 7 28 18 24 30 38 14 -6 18 21 34 36 35 35 27 39 38 43 35 28 29 9 -20 -19 -19 -5 12 20 2 -5 -20 -20 -20 -20 -7 0 -20 -20
-20 -20 -20 -20 -13 14 2 -13 -6 30 35 34 14 -18 1 33 27 39 35 38 39 35 39 38 38 32 33 3 -19 13 -5 10 15 -8 -19 -20 11 11 -20 -20 -20 -3 -20 -20
-18 -4 -20 11 20 1 -18 -16 -9 10 33 25 23 -8 16 38 31 37 39 36 34 24 28 38 23 24 10 2 -16 -20 -4 25 -8 -7 -20 -20 -19 -20 -20 -19 -20 -19 -11 -19
19 15 -6 2 4 -20 -20 -18 21 29 36 35 -1 -6 30 34 25 29 21 23 33 25 16 27 22 8 -20 -12 -14 28 28 28 28 23 1 14 22 -18 -20 -19 -3 -15 -7 -20
16 22 -16 -20 -17 3 33 18 23 20 -1 11 -2 1 24 27 35 28 19 22 21 18 18 0 12 4 10 17 18 11 -5 17 33 24 17 29 33 30 19 13 4 -18 -20 -20
-8 -15 -20 -2 -17 16 21 19 3 -2 -6 -6 -6 1 30 27 27 25 32 26 12 5 12 22 7 -9 5 8 -4 -20 -20 -20 11 23 10 -0 -3 -5 -9 -8 -20 -20 -20 -20
23 4 10 17 -17 18 16 12 -0 20 -10 -17 1 16 33 13 29 14 2 -3 -2 -20 -5 11 16 4 16 0 -19 -19 -20 -20 -19 -6 6 7 2 -17 -15 -17 -20 -20 -20 -20
22 10 3 10 -20 -20 -20 -18 19 11 -16 -19 7 37 34 30 25 17 -6 -16 2 -14 -14 -1 11 17 -6 3 -3 -13 -15 -19 -19 -19 -20 -20 -20 -20 -20 -20 -20 -20 -20 -20
21 -6 -11 -20 -20 -20 17 20 9 14 6 36 26 43 23 -7 13 -8 -20 -20 -20 -20 -12 10 11 8 -2 -16 -20 -20 -15 -10 -12 -20 -20 -20 -20 -20 -20 -20 -20 -20 -20 -20
1 13 -1 -20 -18 -14 -15 -20 -13 14 23 33 36 25 23 26 4 7 -20 -20 -20 -20 -20 -18 -19 -14 0 -8 -19 -20 -20 -20 -20 -20 -20 -20 -20 -20 -20 -20 -20 -20 -20 -20
-5 -20 -20 -20 -20 -0 28 33 35 30 39 29 32 12 -1 -20 -20 -20 -20 -20 -18 -1 -20 -6 13 9 11 -17 -20 -20 -20 -20 -20 -20 -20 -20 -20 -20 -20 -20 -20 -20 -20 -20

GFSNW_prec_radar_288.txt.gz
Reflectivity
20 18 -20 -20 -20 18 19 -20 -20 -20 -20 -20 -20 -20 -20 -20 -20 -20 -20 -20 -20 -20 -20 -20 -20 -20 -20 -20 -20 -20 -20 -20 -20 -20 -20 -20 -20 -20 -20 -20 -20 -20 -20 -20
10 12 19 -20 -11 15 -20 -20 -20 -20 -20 -20 -20 -20 -20 -20 -20 -20 -20 -20 -20 -20 -20 -2 -20 -20 -20 -20 -20 -20 -20 -20 -20 -20 -20 -20 -20 -20 -20 -20 -20 -20 -20 -20
-20 -10 -5 -0 -6 14 -20 -20 -20 -20 16 -17 -20 -20 -20 -20 -20 -20 -20 -20 -20 -14 -2 -2 -16 -20 -20 -20 -20 -20 -20 -20 -20 -20 -20 -20 -20 -20 -20 -20 -20 -20 -20 -20
-20 11 10 10 -6 20 -15 -20 -18 -20 -0 -7 -14 -17 -20 -20 -20 -20 -20 -20 -20 -20 -18 -18 4 -20 -20 -20 -20 -20 -20 4 -20 -20 -20 -20 -20 -20 -20 -20 -20 -20 -20 -20
-10 -20 -20 -20 -8 17 15 5 -20 -9 -20 -15 -20 -13 -20 -20 -20 -20 -20 -20 -20 -20 -20 -20 -20 12 8 -4 3 -20 -20 -2 -20 -20 -20 -20 -20 -20 -20 -20 -20 -20 -20 -20
-20 -20 -20 -18 8 2 -14 7 -20 12 -10 1 -1 -20 -20 -20 -20 -20 -20 -20 -20 -20 -20 -20 -20 -2 -20 2 22 25 16 17 27 24 -20 -20 -14 -20 -20 -20 -20 -20 -20 -20
-20 -20 -20 0 6 -2 -20 -6 7 8 1 -15 -14 -17 -20 -20 -20 -20 -20 -20 -3 -20 -20 -20 -20 -20 -20 -20 -12 11 28 13 -10 10 -11 18 -20 -20 -20 -20 -20 -20 -20 -20
-15 0 18 -20 -20 18 -20 -17 12 7 6 11 -6 -9 -4 -20 -15 -18 -20 -20 -20 -20 -20 7 5 -20 -20 -20 -20 -20 3 30 22 22 34 10 -20 -20 -20 -20 -20 -20 -20 -20
17 -20 12 -20 8 4 -13 -20 -6 19 13 -18 1 5 -20 -8 -20 -20 -20 -20 -20 -20 -18 7 12 2 -20 -20 -14 -20 -20 13 25 21 25 -17 -20 -20 -20 -4 -20 -20 -20 -20
-10 -5 -20 -18 -20 6 11 -20 -10 22 17 6 -9 8 -9 -7 6 0 -20 -20 -20 -11 1 10 9 3 -18 -13 -20 -9 -17 -13 23 31 35 0 -18 -2 -18 5 -20 7 27 11
9 3 -6 18 6 -20 15 -20 7 16 30 12 -1 2 -8 -8 6 5 -20 -8 -20 -20 9 26 29 4 -18 9 20 29 15 9 -5 -8 5 7 -5 -2 -20 -20 -16 -17 20 -12
-7 -20 -20 -20 -20 -7 13 -3 -1 3 23 18 -20 -20 -20 -20 -20 -20 -2 -17 -3 10 19 40 33 23 -4 -12 -14 -19 23 23 20 -20 -20 -20 -16 -20 -20 -20 -3 4 2 1
-14 16 -20 -20 -20 -20 -20 -17 -13 -18 16 -18 1 -16 -20 -20 -20 -20 -20 -20 1 0 3 22 30 42 -18 -19 9 30 5 16 18 -13 -20 -20 -20 -20 -11 16 16 11 11 -8
1 -11 -20 -20 -13 -13 -19 5 9 -3 20 16 -17 -20 -20 -20 -20 -20 -20 -20 -20 -19 17 38 36 36 38 -1 -5 33 -8 -20 -20 -20 -20 -20 -20 -20 3 28 -0 6 -3 -20
-20 -20 -20 -20 -20 1 -18 2 0 7 23 6 9 -19 -20 -20 -20 -20 -20 17 2 5 24 35 31 16 20 30 19 5 31 10 -20 -20 -20 -20 10 15 32 16 4 9 -7 -20
-20 -20 -20 -1 8 21 12 12 -20 -20 -15 -2 8 -16 -20 -20 -20 -20 -20 -14 9 23 22 29 25 15 31 47 13 -20 -20 -20 2 -20 -16 18 16 30 5 9 12 -4 -20 -20
-20 -20 -14 -20 -20 9 6 -20 -7 22 34 38 27 8 -20 -20 -9 15 20 17 19 29 36 31 27 21 23 20 32 -19 -20 -20 -17 -13 21 34 41 15 -18 -0 6 -20 -20 -20
-20 -20 1 -19 -20 19 8 -20 -20 -20 13 37 23 -0 -20 -20 -17 20 16 39 40 40 37 31 15 12 24 24 2 -20 -20 26 17 20 31 31 14 8 8 -7 10 -20 -20 -20
-20 -20 11 3 15 8 -16 -20 -20 7 19 27 24 -6 -20 7 27 34 37 35 35 34 38 32 33 25 32 36 15 -20 -20 2 -0 20 5 12 13 -20 -20 -11 14 -3 -20 -20
17 -7 14 -20 -20 -20 -19 -20 18 9 16 29 -5 -20 -20 -14 12 19 37 39 31 26 24 31 37 25 7 28 27 -11 -20 -20 -20 -19 -20 -20 13 -15 -20 -1 13 20 8 -4
-9 23 -17 -20 -19 -1 21 17 15 -1 8 6 -16 -20 -5 11 10 28 38 33 28 10 25 26 29 4 -18 -9 34 9 -13 -20 -20 -20 -20 17 23 11 -3 -2 14 -0 -7 -14
-15 25 3 -17 -6 -7 12 6 17 13 0 -20 -3 -18 -8 -1 15 28 35 29 28 9 21 27 -1 -20 -20 -20 -3 -19 -20 -20 -20 -20 -14 9 36 35 24 16 32 33 28 9
32 31 11 16 -2 16 12 -20 -15 12 -20 -18 6 6 18 -0 19 38 31 9 2 5 19 15 12 -20 -20 -20 -20 -11 -15 -20 -20 -19 -7 18 30 39 38 23 23 25 15 3
26 11 -7 15 9 -18 -20 -20 2 25 24 18 33 32 26 10 34 21 -17 -20 16 7 8 12 10 -20 -20 -4 -1 3 -20 -20 -13 20 35 36 31 27 30 29 18 8 -19 -20
26 8 -18 -14 -20 -20 -20 -20 -20 -2 22 32 28 21 31 27 18 -18 -20 -20 -20 -8 6 17 -9 -14 -19 -12 9 18 9 8 -16 -2 10 12 12 2 12 4 -6 -16 -20 -16
18 26 -3 -20 -20 -20 -20 -20 -10 10 32 29 30 29 22 29 0 9 -20 -20 -14 -1 8 -19 -16 -4 7 -5 -14 -13 -16 -20 -20 -20 -12 4 9 5 3 -2 -14 -20 -20 -20
6 -19 -20 -20 -20 -20 -20 -6 -3 14 26 23 25 26 17 30 10 -20 -20 -20 -20 -18 -20 -20 -20 -20 -20 2 -17 -20 -20 -20 -20 -20 -20 -20 -20 -20 -20 -20 -20 -20 -20 -20

GFSNW_prec_radar_291.txt.gz
Reflectivity
-20 -20 -20 -20 -20 -20 -20 -20 -20 -20 -20 -20 -20 -20 -20 -20 -20 -20 -20 -20 -20 -20 -20 -20 -20 -20 -20 -20 -20 -20 -20 -20 -20 -20 -20 -20 -20 -20 -20 -20 -20 -20 -20 -20
-13 0 9 -20 -20 -7 -20 -20 -20 -20 -20 -20 -20 -20 -20 -20 -20 -20 -20 -20 -20 -20 -20 -20 -20 -20 -20 -20 -20 -20 -20 -20 -20 -20 -20 -20 -20 -20 -20 -20 -20 -20 -20 -20
-2 8 10 -20 9 6 14 -20 -20 -15 -5 -20 -20 -20 -20 -20 -20 -20 -20 -20 -20 -20 -20 -3 -16 -20 -20 -20 -20 -20 -20 -20 -20 -20 -20 -20 -20 -20 -20 -20 -20 -20 -20 -20
4 -7 13 16 2 -20 10 -20 -20 -20 4 0 -20 -20 -20 -20 -20 -20 -20 -20 -20 -20 -20 -20 -20 -20 -20 -20 -20 -20 -20 -20 -20 -20 -20 -20 -20 -20 -20 -20 -20 -20 -20 -20
-19 8 13 -17 10 -19 20 6 -8 -20 -20 -20 -20 -20 -20 -20 -20 -20 -20 -20 -20 -20 -20 -20 -20 -20 -20 -20 -20 -20 -13 -20 -20 -20 -20 -20 -20 -20 -20 -20 -20 -20 -20 -20
-20 5 -14 21 18 4 3 -2 -20 -17 -20 -20 -18 -20 -20 -18 -2 -20 -20 -20 -20 -20 -20 -20 -20 -20 -20 -20 -20 -20 -20 -13 1 7 -15 -2 -9 -20 -20 -20 -20 -20 -20 -20
-19 15 2 2 -20 18 -20 16 -16 -4 3 -10 -20 -20 -20 -20 -20 -20 -20 -20 -20 -20 -20 -20 -20 -20 -20 -20 -20 -20 -20 -20 -12 17 13 18 -1 -20 -20 -20 -20 -20 -20 -20
-18 17 -12 -20 -3 21 12 17 14 -16 -19 -20 -20 -20 -20 -20 -6 -20 -0 -20 -20 -20 6 11 -13 -20 -20 -20 -20 -20 -20 -20 -20 11 5 4 -20 -20 -20 -20 -20 -20 -20 -20
-5 18 19 -20 10 23 17 4 11 19 -16 -19 -20 -20 -20 -18 -20 -20 -20 -20 -20 -20 1 10 -18 -4 -20 -20 -20 -20 -20 -20 -20 -20 11 7 -20 -20 -20 -20 -20 -20 -20 -20
-8 -20 -20 6 -20 22 19 -20 -13 17 11 4 6 3 -20 -14 -11 -0 -20 -5 -20 -20 -7 12 6 8 -18 -5 -20 -20 -20 -20 -20 -20 -6 -13 -20 -20 -20 -17 -20 -20 -20 -20
-9 21 17 -18 1 21 20 -0 -20 7 16 4 -1 -4 1 -10 11 8 -19 7 -20 -2 13 9 -20 -19 -20 -20 -20 -20 -20 -20 -18 -6 5 10 -20 -20 -18 -20 -20 -20 -20 -20
20 18 14 16 -20 -18 22 13 -10 -4 19 16 -13 -20 -5 -17 -19 0 13 -17 -13 11 25 21 14 23 2 -9 10 -20 -17 -18 -18 -18 -18 -20 -20 -20 -20 -20 -20 -20 -20 -15
16 14 15 11 -18 -16 16 -5 -19 10 8 -1 -18 -20 -20 -20 -20 -20 13 -20 -5 -19 -14 4 4 12 4 7 -16 -16 -20 -20 7 -14 -20 -20 -20 -20 -20 -20 -20 -19 -13 -19
8 18 4 -20 -20 -20 -20 -10 7 7 10 9 -20 -20 -20 -20 -20 -20 -20 -20 -20 -11 11 25 28 14 10 1 -17 -3 -7 -5 33 17 -20 -20 -20 -20 -20 -20 -5 -20 15 -20
17 18 8 -17 -20 -4 -15 6 -14 -14 2 -12 -20 -20 -20 -20 -20 -20 -20 -0 2 -5 6 28 20 13 11 4 0 -11 -19 -20 1 13 -20 -18 -20 -20 3 -20 -20 -20 -20 2
20 20 11 -20 -8 -20 -2 -19 -20 -20 -3 -13 2 -20 -20 -20 -20 -20 -20 4 2 8 8 11 20 5 13 11 -10 -20 -20 1 5 -20 10 -15 -20 -20 -2 8 4 19 30 11
2 8 -20 1 8 -20 -2 -20 -20 -16 2 15 23 21 -20 -20 -20 -20 -20 -20 -10 7 7 17 6 9 20 19 7 -7 14 2 2 4 -6 -12 10 6 9 15 32 44 23 -10
-20 -20 -20 -4 -0 21 15 -20 -20 12 20 25 12 -20 -20 -20 -20 -11 -20 20 34 35 23 14 11 12 12 13 17 0 -10 -4 -12 27 11 -1 -12 26 16 20 22 -8 4 -13
-20 -20 18 -8 1 15 -20 -20 -20 -20 -0 5 -6 3 -5 4 21 5 -19 12 17 5 26 28 27 26 28 7 -18 -20 -20 -20 -14 -16 -18 28 4 17 13 37 17 12 10 -8
17 -20 4 -17 -20 -20 -20 18 23 21 22 22 -1 -20 -20 -20 -20 -19 -20 -18 10 17 18 30 37 26 1 -20 -20 -20 -20 -20 -20 -20 -17 17 5 12 16 27 -19 23 16 -6
-20 -8 -17 -20 -8 12 -5 -17 17 16 8 -6 -20 -20 -20 -20 -20 -17 5 8 17 18 32 31 31 -1 -20 -20 -20 -20 -18 -20 -20 -20 10 9 18 27 17 5 26 28 29 26
-16 -15 -3 -17 20 20 13 0 2 9 -19 -20 -8 -13 -8 -20 -16 1 14 21 28 15 27 25 11 -20 -20 -20 -20 -20 5 -10 -20 -20 -14 -20 -19 11 8 25 30 33 31 31
-18 -19 15 17 9 12 18 -20 -18 -16 13 2 28 16 30 36 25 28 21 14 26 25 24 19 -8 9 -20 -12 -9 18 33 28 16 -20 -20 -16 1 -2 24 27 34 30 30 28
-11 -5 21 -6 -17 -20 -20 -20 -9 24 -14 -13 13 14 29 18 35 24 11 37 18 6 16 24 18 -17 -20 -20 -20 13 21 28 17 -4 3 16 26 29 27 27 27 33 37 34
6 12 19 -16 -20 -20 -20 -18 -1 25 -14 -14 -8 18 15 11 24 27 36 16 17 10 21 15 -2 17 9 -6 6 27 28 20 -11 -2 17 29 32 34 33 35 31 26 25 23
16 -6 21 -20 -11 -20 -20 -20 -20 -14 -7 -11 16 14 20 16 3 2 13 9 12 -3 -17 14 -10 10 32 32 24 21 24 37 31 29 30 36 33 30 26 21 22 25 19 17
12 -20 -20 -20 -20 -20 11 -16 -20 -19 -18 -19 9 13 27 34 8 -19 16 19 2 20 -9 -5 14 -9 5 34 37 31 28 29 30 25 21 22 22 20 20 13 17 17 14 3

GFSNW_prec_radar_297.txt.gz
Reflectivity
-20 -20 -20 -20 -20 -20 -20 -19 -20 -12 -20 -20 -20 -20 -20 -20 -20 -20 -20 -20 -20 -20 -20 -20 -20 -20 -20 -20 -20 -20 -20 -20 -20 -20 -20 -20 -20 -20 -20 -20 -20 -20 -20 -20
-20 -20 -20 -20 -20 -20 6 14 -20 -14 -20 -20 -20 -20 -20 -20 -20 -20 -20 -20 -20 -20 -20 -20 -20 -20 -20 -20 -20 -20 -20 -20 -20 -20 -20 -20 -20 -20 -20 -20 -20 -20 -20 -20
-20 -20 -20 -20 -20 -20 4 16 4 -16 -20 -20 -20 -20 -20 -20 -20 -20 -20 -20 -20 -20 -20 -20 -20 -20 -19 -20 -20 -20 -20 -20 -20 -20 -20 -20 -20 -18 -20 -20 -20 -20 -20 -20
-20 -20 -20 -20 -20 -20 18 17 11 6 7 -20 -20 -20 -20 -20 -20 -20 -20 -20 -20 -20 -20 -20 -20 -20 -20 -20 -20 -20 -20 -20 -20 -20 -20 -20 -20 -20 -20 -20 -20 -19 -20 -20
-20 -20 -20 -20 -20 -20 23 16 12 -9 -18 -20 3 -20 -20 -20 -20 -20 -20 -20 -20 -20 -20 -20 -20 -20 -20 -20 -20 -20 -20 -20 -20 -20 -20 -20 -20 -20 -20 -20 -20 -20 -20 -20
-20 -20 -20 -20 -20 -18 19 -6 -6 21 -11 7 3 -20 -20 -20 -20 -20 -20 -20 -20 -20 -20 -20 -20 -20 -20 -20 -20 -20 -20 -20 -20 -20 -20 -20 -20 -20 -20 -20 -20 -20 -20 -20
-20 -15 -10 -10 -20 -20 18 15 21 21 15 8 11 -18 -20 -20 -20 -20 -20 -20 -20 -20 -20 -20 -20 -20 -20 -20 -20 -20 -20 -20 -20 -20 -20 -20 -20 -20 -20 -20 -20 -20 -20 -20
-19 8 -20 -18 -20 -20 8 14 20 23 18 16 11 7 -15 -20 -20 -20 -20 -20 -20 -20 -20 -20 -20 -20 -20 -20 -20 -20 -20 -20 -20 -20 -20 -20 -20 -20 -20 -20 -20 -20 -20 -20
-20 8 -20 -20 -20 -20 2 14 22 25 20 -9 -5 19 9 8 11 11 -20 -20 -20 -20 -15 4 0 -20 -20 -20 -20 -20 -20 -20 -4 -20 -20 -20 -20 -20 -20 -20 -20 -20 -20 -20
-20 -5 -2 -19 -3 -15 13 16 17 22 31 3 15 17 1 -8 11 4 19 -6 -10 -20 18 17 3 -13 -20 -20 -20 -20 -20 4 -2 4 10 -11 -20 -20 -20 -20 -20 -20 -20 -20
-9 6 -10 3 5 -20 8 11 21 20 29 15 15 -3 19 -2 18 18 -10 4 4 16 20 13 6 -8 -20 -20 -20 -20 -20 -20 19 15 12 14 -20 -20 -20 -20 -20 -20 -20 -20
18 -5 1 5 11 -20 -20 21 21 23 25 23 -7 -20 -20 -20 -20 -9 7 17 4 22 21 21 19 14 7 3 -16 -20 -20 -20 -20 -19 -17 -20 -20 -20 -20 -14 -8 -20 -20 -20
8 -6 6 15 1 -20 -9 18 17 24 30 29 8 8 -20 -20 -20 -20 19 -16 14 -20 -19 2 0 11 -20 -11 -13 -20 -20 -20 7 17 -16 -20 -20 -20 -20 -20 -20 -20 -20 -20
-20 -7 9 1 -12 -13 23 15 21 21 25 28 7 -20 -20 -20 -20 -20 -19 -14 -13 -18 -17 15 16 13 -14 -14 -20 -20 -20 -20 -20 -20 -20 -20 -20 -20 -20 -20 -20 -20 -20 -20
-17 1 20 -18 0 -2 18 20 24 12 17 22 6 -20 -20 -20 -20 -20 -20 -17 1 -17 12 13 14 -20 1 -20 -20 -20 -20 -20 -14 -20 -20 -20 -20 -20 -20 -20 -20 -20 -20 -20
-2 -20 -20 25 -5 22 26 36 19 32 18 29 1 -20 -20 -20 -20 -20 -20 -20 -20 0 -16 6 12 -20 -14 12 4 -20 -20 -20 -20 -20 -20 -20 -20 -20 -20 -20 -20 -20 -20 -20
21 26 21 18 18 22 32 22 8 -20 -12 9 4 1 -20 -20 -20 -18 -20 -20 -20 -2 9 15 10 10 5 11 9 -20 -20 -20 -20 -20 -20 -20 -20 -20 -20 -20 -20 -20 -20 -18
40 31 32 34 28 24 11 -0 -20 -20 -10 -1 16 -3 -20 -20 -20 11 -20 17 19 19 15 15 16 5 10 -1 -14 -20 -20 -20 -16 -12 -8 -16 -20 -20 -20 -20 -20 -20 -20 -20
33 20 35 34 36 22 14 -2 -5 9 16 21 14 -19 -11 -20 -20 -20 -18 11 21 14 21 15 15 11 15 -17 -20 -20 -17 6 3 10 14 2 -20 -20 -20 -20 -20 -20 13 34
39 35 32 23 16 -5 -8 22 23 19 14 14 -10 -20 -20 -20 -20 -3 14 -20 17 8 -20 -14 16 2 -9 13 15 17 10 7 17 20 11 -20 -20 -20 -20 -20 3 20 32 26
31 34 23 21 5 20 22 18 16 8 6 -11 -20 -20 -20 -20 7 -13 16 10 0 10 -20 -15 -15 13 14 19 19 24 30 25 16 -5 -20 -20 -20 -20 -20 -20 -12 5 18 35
23 9 21 22 23 25 15 14 14 8 -10 -20 -20 -3 -7 8 21 13 17 15 16 19 -19 18 11 15 18 22 35 41 16 1 16 -15 -18 -0 -1 -20 -20 -20 -19 -17 25 30
18 19 -0 -2 14 19 9 5 7 -5 -20 -20 23 23 -20 19 10 21 17 20 3 -3 15 7 15 24 26 20 12 8 -6 -16 -20 -20 -17 -12 -19 -13 9 22 24 18 22 19
9 -4 4 8 10 -20 -20 -20 6 -19 -20 -20 -14 20 17 15 23 14 14 -19 -10 14 11 16 30 25 19 22 27 20 21 -1 4 -20 -20 -9 7 16 27 28 33 23 9 22
3 -1 0 -18 -19 2 -17 3 -20 -4 2 -16 16 19 21 18 11 11 -6 -13 1 22 25 15 9 17 30 31 34 15 21 16 -20 -20 -16 7 25 33 32 37 29 32 24 20
5 9 0 12 17 1 15 3 5 -20 17 -20 23 21 17 13 19 12 20 20 18 23 3 1 26 31 28 33 34 21 23 23 9 16 -2 16 13 24 29 30 32 32 23 22
18 -20 -20 -17 4 23 23 23 19 -20 18 21 17 16 16 -20 15 13 -17 9 -10 1 1 17 29 35 37 36 36 37 34 37 39 26 -20 -18 -5 18 32 38 40 37 40 35